Location: Cortada de Papelón
(10.0378°N, 66.9528°W)
Time: 09:28:41
(UTC+00:00)

ADEOS - Pass Details

Date: 13 June 2024
Orbit: 791 x 793 km, 98.9° (Epoch: 19 July)

Event Time Altitude Azimuth Distance (km) Brightness Sun altitude
Exits shadow 23:46:46 - 163° (SSE) 2,563 5.8 -13.6°
Reaches altitude 10° 23:47:18 10° 163° (SSE) 2,353 5.6 -13.7°
Maximum altitude 23:52:30 79° 77° (ENE) 808 3.5 -14.9°
Drops below altitude 10° 23:57:41 10° 351° (N) 2,350 6.5 -16.0°
Sets 00:00:00 0° 350° (N) 3,279 7.3 -16.5°
